GW5715 Weather Reports


time (UTC)temp
F
wind
direction
speed
knots
gust
knots
rain 1hr
in
rain 24hr
in
rain mn
in
humidity
%
barometer
mb
20260504081800 90 306 0.0 0.0 0.00 0.22 0.22 53 1006.3
20260504081256 90 350 0.0 0.9 0.00 0.22 0.22 53 1006.6
20260504080753 91 359 0.9 1.7 0.00 0.22 0.22 52 1006.7
20260504080249 90 66 0.0 0.0 0.00 0.22 0.22 53 1006.7
20260504070217 90 248 0.0 0.0 0.00 0.22 0.22 58 1008.4
20260504060137 88 358 0.0 0.0 0.00 0.22 0.22 62 1009.0
20260504050605 83 32 1.7 2.6 0.00 0.22 0.22 71 1009.6
20260504045559 84 277 1.7 1.7 0.00 0.22 0.22 71 1009.6
20260504045054 84 296 0.0 0.0 0.00 0.22 0.22 74 1009.5
20260504044552 83 299 0.0 0.9 0.00 0.22 0.22 75 1009.5
20260504044049 83 280 0.0 0.0 0.00 0.22 0.22 75 1009.6
20260504043546 82 115 0.0 0.0 0.00 0.22 0.22 77 1009.5
20260504043043 82 282 0.0 0.0 0.00 0.22 0.22 77 1009.6
20260504042540 82 36 0.9 4.3 0.00 0.22 0.22 77 1009.6
20260504042037 82 316 0.9 1.7 0.00 0.22 0.22 77 1009.7
20260504041533 82 337 0.0 0.0 0.00 0.22 0.22 79 1009.7
20260504041029 82 356 0.0 0.0 0.00 0.22 0.22 80 1009.9
20260504040527 81 23 4.3 7.0 0.00 0.22 0.22 80 1009.7
20260504040024 80 275 0.0 0.0 0.00 0.22 0.22 82 1009.6
20260504035521 80 342 0.0 0.0 0.00 0.22 0.22 84 1009.7
20260504035017 80 248 0.0 0.0 0.00 0.22 0.22 84 1009.5
20260504034514 80 290 2.6 2.6 0.00 0.22 0.22 84 1009.6
20260504034011 80 304 0.0 0.9 0.00 0.22 0.22 84 1009.3
20260504033509 79 253 0.0 0.9 0.00 0.22 0.22 85 1009.7
20260504033006 78 21 0.0 0.0 0.00 0.22 0.22 87 1009.2
20260504032503 78 301 0.0 0.0 0.00 0.22 0.22 88 1009.6
20260504032000 78 356 0.9 1.7 0.00 0.22 0.22 88 1009.3
20260504031456 77 5 0.9 1.7 0.00 0.22 0.22 89 1009.3
20260504030953 77 339 0.0 0.0 0.00 0.22 0.22 91 1009.0
20260504030450 76 303 0.9 1.7 0.00 0.22 0.22 91 1009.3
20260504025946 76 285 0.0 0.0 0.00 0.22 0.22 91 1009.2
20260504025443 76 326 0.0 0.0 0.00 0.22 0.22 92 1009.1
20260504024940 75 267 0.0 0.0 0.00 0.22 0.22 92 1009.2
20260504024437 75 217 0.0 0.0 0.00 0.22 0.22 92 1009.0
20260504023934 75 337 0.0 0.0 0.00 0.22 0.22 93 1008.9
20260504023430 74 288 0.0 0.0 0.00 0.22 0.22 93 1008.9
20260504022926 74 328 0.0 0.0 0.00 0.22 0.22 93 1008.9
20260504022423 73 276 0.9 0.9 0.00 0.22 0.22 92 1008.5
20260504021920 73 247 0.0 0.0 0.00 0.22 0.22 92 1008.9
20260504021417 73 248 0.0 0.0 0.00 0.22 0.22 93 1008.9
20260504020914 72 263 0.0 0.0 0.00 0.22 0.22 93 1008.8
20260504020411 71 296 0.0 0.0 0.00 0.22 0.22 93 1008.5
20260504015907 72 315 0.0 0.0 0.00 0.22 0.22 94 1008.5
20260504015403 71 330 0.0 0.0 0.00 0.22 0.22 93 1008.3
20260504014859 71 330 0.0 0.0 0.00 0.22 0.22 93 1008.3
20260504014355 71 301 0.0 0.0 0.00 0.22 0.22 93 1008.3
20260504013853 71 316 0.0 0.0 0.00 0.22 0.22 93 1008.2
20260504013351 71 292 0.0 0.0 0.00 0.22 0.22 93 1008.4
20260504012847 71 337 0.0 0.0 0.00 0.22 0.22 93 1008.8
20260504012345 71 323 0.0 0.0 0.00 0.22 0.22 93 1008.9
20260504011842 70 332 0.0 0.0 0.00 0.22 0.22 93 1008.8
20260504011338 70 313 0.0 0.0 0.00 0.22 0.22 92 1008.5
20260504010835 70 341 0.0 0.0 0.12 0.22 0.22 92 1008.8
20260504010330 70 21 0.0 0.0 0.59 0.22 0.22 92 1008.2
20260504005827 71 320 0.0 0.0 0.47 0.18 0.18 91 1008.3
20260504005324 71 308 0.0 0.0 0.73 0.12 0.12 89 1009.0
20260504004822 73 324 0.0 0.0 0.61 0.10 0.10 86 1008.5
20260504004319 73 325 0.0 0.0 0.00 0.00 0.00 83 1008.9
20260504003815 72 294 0.0 0.0 0.00 0.00 0.00 84 1008.9
20260504003312 72 44 0.9 0.9 0.00 0.00 0.00 86 1009.1
20260504002809 73 141 0.9 0.9 0.00 0.00 0.00 90 1008.7
20260504002306 74 1 0.0 0.0 0.00 0.00 0.00 92 1008.9
20260504001803 74 342 0.0 0.0 0.00 0.00 0.00 91 1008.7
20260504001300 74 331 0.0 0.0 0.00 0.00 0.00 92 1008.8
20260504000757 74 97 0.0 0.0 0.00 0.00 0.00 91 1008.4
20260504000254 74 316 0.0 0.0 0.00 0.00 0.00 91 1008.3
20260503235752 74 313 0.0 0.0 0.00 0.00 0.00 91 1008.3
20260503235249 74 315 0.0 0.0 0.00 0.00 0.00 91 1008.0
20260503234747 74 316 0.0 0.0 0.00 0.00 0.00 91 1008.1
20260503234245 74 317 0.0 0.0 0.00 0.00 0.00 90 1008.0
20260503233742 74 332 0.0 0.0 0.00 0.00 0.00 90 1008.1
20260503233237 74 287 0.0 0.0 0.00 0.00 0.00 91 1008.1
20260503232734 74 255 0.0 0.0 0.00 0.00 0.00 90 1007.7
20260503232232 75 271 0.0 0.0 0.00 0.00 0.00 90 1007.7
20260503231730 74 277 0.0 0.0 0.00 0.00 0.00 90 1007.7
20260503231226 74 317 0.0 0.0 0.00 0.00 0.00 91 1007.7
20260503230722 74 307 0.0 0.0 0.00 0.00 0.00 91 1007.9
20260503230220 74 340 0.0 0.0 0.00 0.00 0.00 91 1007.8
20260503225717 74 239 0.0 0.0 0.00 0.00 0.00 90 1007.7
20260503225217 74 301 0.0 0.0 0.00 0.00 0.00 91 1007.8
20260503224715 74 327 0.0 0.0 0.00 0.00 0.00 91 1007.7
20260503224212 74 325 0.0 0.0 0.00 0.00 0.00 91 1007.5
20260503223710 74 319 0.0 0.0 0.00 0.00 0.00 91 1007.2
20260503223207 74 312 0.0 0.0 0.00 0.00 0.00 91 1007.0
20260503222703 74 319 0.0 0.0 0.00 0.00 0.00 91 1007.2
20260503222201 74 317 0.0 0.0 0.00 0.00 0.00 91 1007.2
20260503221700 74 324 0.0 0.0 0.00 0.00 0.00 91 1007.1
20260503221156 74 315 0.0 0.0 0.00 0.00 0.00 91 1006.6
20260503220653 74 295 0.0 0.0 0.00 0.00 0.00 91 1006.7
20260503220149 74 312 0.0 0.0 0.00 0.00 0.00 91 1006.7
20260503215647 74 358 0.0 0.0 0.00 0.00 0.00 91 1006.8
20260503215143 74 317 0.0 0.0 0.00 0.00 0.00 90 1006.4
20260503214643 74 300 0.0 0.0 0.00 0.00 0.00 90 1006.6
20260503214138 74 230 0.9 1.7 0.00 0.00 0.00 90 1006.3
20260503213637 75 325 0.9 1.7 0.00 0.00 0.00 90 1006.4
20260503213133 75 321 0.0 0.0 0.00 0.00 0.00 90 1006.3
20260503212631 75 283 0.0 0.9 0.00 0.00 0.00 89 1006.3
20260503212128 75 311 0.0 0.0 0.00 0.00 0.00 89 1006.5
20260503211626 75 256 0.0 1.7 0.00 0.00 0.00 89 1006.5
20260503211121 75 327 0.0 0.9 0.00 0.00 0.00 89 1006.6
20260503210618 75 233 0.0 0.0 0.00 0.00 0.00 89 1006.6
20260503210114 75 326 0.0 0.0 0.00 0.00 0.00 88 1006.6
20260503205610 75 248 0.0 1.7 0.00 0.00 0.00 88 1006.7
20260503205107 76 292 0.9 1.7 0.00 0.00 0.00 88 1007.0
20260503204604 76 313 0.0 0.0 0.00 0.00 0.00 88 1006.8
20260503204101 76 289 0.0 0.0 0.00 0.00 0.00 88 1007.1
20260503203558 76 251 1.7 2.6 0.00 0.00 0.00 87 1007.0
20260503203055 76 246 0.0 1.7 0.00 0.00 0.00 87 1007.1
20260503202553 76 335 0.0 0.0 0.00 0.00 0.00 87 1007.1
20260503202051 76 249 0.0 0.0 0.00 0.00 0.00 87 1006.8
20260503201548 76 311 0.0 0.0 0.00 0.00 0.00 87 1007.1
20260503201046 76 297 0.0 0.9 0.00 0.00 0.00 87 1007.2
20260503200541 77 288 0.0 0.9 0.00 0.00 0.00 86 1007.7
20260503200038 77 324 0.0 0.0 0.00 0.00 0.00 86 1007.5
20260503195536 77 332 0.0 0.9 0.00 0.00 0.00 86 1007.6
20260503195032 77 320 0.9 0.9 0.00 0.00 0.00 86 1007.6
20260503194530 77 289 0.0 0.0 0.00 0.00 0.00 86 1007.3
20260503194029 77 303 0.0 0.0 0.00 0.00 0.00 85 1007.9
20260503193527 77 285 1.7 2.6 0.00 0.00 0.00 85 1007.9
20260503193021 77 300 0.0 0.0 0.00 0.00 0.00 85 1007.9
20260503192518 77 6 0.0 0.0 0.00 0.00 0.00 85 1008.3
20260503192014 77 12 0.0 0.0 0.00 0.00 0.00 85 1008.1
20260503191511 77 338 0.0 1.7 0.00 0.00 0.00 85 1008.0
20260503191008 77 203 0.0 0.0 0.00 0.00 0.00 84 1008.2
20260503190505 78 305 0.0 0.0 0.00 0.00 0.00 84 1008.4
20260503190002 78 311 0.0 0.0 0.00 0.00 0.00 83 1008.3
20260503185458 78 223 0.0 0.9 0.00 0.00 0.00 83 1008.7
20260503184957 78 334 0.0 0.0 0.00 0.00 0.00 83 1008.5
20260503184454 78 319 0.0 0.0 0.00 0.00 0.00 82 1008.8
20260503183950 79 268 2.6 6.1 0.00 0.00 0.00 81 1008.7
20260503183447 79 232 0.0 0.0 0.00 0.00 0.00 79 1008.7
20260503182944 80 203 0.0 0.9 0.00 0.00 0.00 78 1008.7
20260503182443 80 239 0.0 0.0 0.00 0.00 0.00 76 1009.1
20260503181940 80 331 0.0 0.0 0.00 0.00 0.00 76 1009.1
20260503181437 80 290 0.9 1.7 0.00 0.00 0.00 76 1009.1
20260503180933 80 116 0.0 0.0 0.00 0.00 0.00 76 1009.2
20260503180432 80 337 0.0 0.9 0.00 0.00 0.00 76 1009.2
20260503175928 80 316 0.0 0.0 0.00 0.00 0.00 77 1009.3
20260503175426 80 157 0.0 0.0 0.00 0.00 0.00 76 1008.9
20260503174921 80 165 0.9 1.7 0.00 0.00 0.00 76 1008.9
20260503174420 80 247 0.0 0.0 0.00 0.00 0.00 75 1008.7
20260503173920 80 324 0.0 0.0 0.00 0.00 0.00 74 1008.7
20260503173416 80 313 0.0 0.0 0.00 0.00 0.00 74 1008.9
20260503172913 81 192 3.5 5.2 0.00 0.00 0.00 73 1009.0
20260503172411 81 320 0.0 0.9 0.00 0.00 0.00 72 1008.9
20260503171907 81 324 0.0 0.0 0.00 0.00 0.00 71 1009.1
20260503171404 81 232 0.0 0.0 0.00 0.00 0.00 71 1009.1
20260503170901 81 144 0.0 0.0 0.00 0.00 0.00 70 1009.1
20260503170357 82 309 0.0 0.0 0.00 0.00 0.00 69 1008.7
20260503150749 83 325 0.0 0.0 0.00 0.00 0.00 59 1006.8
20260503150245 83 324 0.0 0.0 0.00 0.00 0.00 58 1006.7
20260503140210 85 326 0.0 0.0 0.00 0.00 0.00 51 1005.9
20260503131140 88 329 0.0 0.0 0.00 0.00 0.00 47 1005.2
20260503130637 88 316 0.0 0.0 0.00 0.00 0.00 47 1005.4
20260503130135 88 305 0.0 0.0 0.00 0.00 0.00 47 1005.3
20260503110527 92 28 0.0 0.0 0.00 0.00 0.00 46 1004.6